Location: Moscow
(55.7500°N, 37.5830°E)
Time: 16:39:45
(UTC+03:00)

Vanguard 2 Rocket - Pass Details

Date: 06 December 2021
Orbit: 553 x 3325 km, 32.9° (Epoch: 23 January)

Event Time Altitude Azimuth Distance (km) Brightness Sun altitude
Rises 18:50:41 0° 212° (SSW) 3,440 10.4 -22.6°
Reaches altitude 10° 18:55:02 10° 180° (S) 2,974 9.6 -23.2°
Maximum altitude 18:57:23 12° 161° (SSE) 3,114 9.5 -23.6°
Drops below altitude 10° 19:00:04 10° 143° (SE) 3,554 9.6 -23.9°
Enters shadow 19:00:05 10° 143° (SE) 3,558 9.6 -23.9°
